Location: ????????
(48.4751°N, 37.6926°E)
Time: 11:50:11
(UTC+00:00)

ATLAS 5 CENTAUR R/B - Pass Details

Date: 20 January 2021
Orbit: 511 x 1147 km, 63.3° (Epoch: 16 February)

Event Time Altitude Azimuth Distance (km) Brightness Sun altitude
Rises 15:14:08 0° 226° (SW) 2,648 6.1 -10.6°
Reaches altitude 10° 15:16:12 10° 229° (SW) 1,800 5.1 -11.0°
Maximum altitude 15:20:11 70° 314° (NW) 624 1.7 -11.6°
Enters shadow 15:24:25 12° 38° (NE) 1,927 3.6 -12.3°
